20040726,000002,1131858,33.307833,-124.266000,NaN,18.565,32.710,43.741,  NaN,0.0, NaN, NaN, NaN, NaN,23.381,449.147,18.10,1017.28,87.20,NaN,0.0,NaN,10.6,NaN,330.1,NaN,5.7,NaN,NaN, NaN,NaN,329.0,NaN,NaN,NaN,2,9.6,086399,   NaN,330.1,     NaN,      NaN,NaN,10.3,NaN,18.569, NaN,NaN,NaN, NaN, NaN
20040726,000032,1131888,33.309000,-124.266833,NaN,18.586,32.717,43.769,  NaN,0.0, NaN, NaN, NaN, NaN,23.381,449.138,18.10,1017.23,87.20,NaN,0.0,NaN,10.5,NaN,329.9,NaN,5.7,NaN,NaN, NaN,NaN,329.0,NaN,NaN,NaN,2,9.5,000029,   NaN,329.9,     NaN,      NaN,NaN,9.9,NaN,18.590, NaN,NaN,NaN, NaN, NaN
20040726,000102,1131918,33.310167,-124.267667,NaN,18.605,32.723,43.794,  NaN,0.0, NaN, NaN, NaN, NaN,23.381,449.157,18.10,1017.26,87.40,NaN,0.0,NaN,10.0,NaN,331.6,NaN,5.2,NaN,NaN, NaN,NaN,329.0,NaN,NaN,NaN,2,9.2,000059,   NaN,331.7,     NaN,      NaN,NaN,10.3,NaN,18.609, NaN,NaN,NaN, NaN, NaN
20040726,000132,1131948,33.311333,-124.268333,NaN,18.614,32.727,43.808,  NaN,0.0, NaN, NaN, NaN, NaN,23.382,449.070,18.20,1017.35,87.80,NaN,8.0,NaN,9.0,NaN,333.1,NaN,4.3,NaN,NaN, NaN,NaN,330.0,NaN,NaN,NaN,2,9.3,000089,   NaN,330.9,     NaN,      NaN,NaN,9.8,NaN,18.618, NaN,NaN,NaN, NaN, NaN
20040726,000202,1131978,33.312333,-124.269167,NaN,18.625,32.731,43.823,  NaN,0.0, NaN, NaN, NaN, NaN,23.382,449.068,18.20,1017.19,87.80,NaN,1.0,NaN,10.5,NaN,330.8,NaN,4.8,NaN,NaN, NaN,NaN,329.0,NaN,NaN,NaN,2,9.4,000119,   NaN,330.8,     NaN,      NaN,NaN,10.1,NaN,18.630, NaN,NaN,NaN, NaN, NaN
20040726,000232,1132008,33.313500,-124.270000,NaN,18.629,32.733,43.829,  NaN,0.0, NaN, NaN, NaN, NaN,23.382,448.994,18.20,1017.30,87.50,NaN,345.0,NaN,8.9,NaN,317.3,NaN,4.3,NaN,NaN, NaN,NaN,329.0,NaN,NaN,NaN,2,9.5,000149,   NaN,330.2,     NaN,      NaN,NaN,9.7,NaN,18.633, NaN,NaN,NaN, NaN, NaN
20040726,000302,1132038,33.314667,-124.270833,NaN,18.635,32.731,43.833,  NaN,0.0, NaN, NaN, NaN, NaN,23.380,449.258,18.20,1017.24,87.50,NaN,358.0,NaN,11.0,NaN,327.5,NaN,5.6,NaN,NaN, NaN,NaN,330.0,NaN,NaN,NaN,2,9.5,000179,   NaN,331.3,     NaN,      NaN,NaN,10.3,NaN,18.639, NaN,NaN,NaN, NaN, NaN
20040726,000332,1132068,33.315833,-124.271667,NaN,18.634,32.732,43.833,  NaN,0.0, NaN, NaN, NaN, NaN,23.380,449.237,18.20,1017.31,87.80,NaN,0.0,NaN,10.2,NaN,330.5,NaN,5.3,NaN,NaN, NaN,NaN,329.0,NaN,NaN,NaN,2,9.5,000209,   NaN,330.4,     NaN,      NaN,NaN,10.1,NaN,18.639, NaN,NaN,NaN, NaN, NaN
20040726,000402,1132098,33.317000,-124.272500,NaN,18.635,32.733,43.835,  NaN,0.0, NaN, NaN, NaN, NaN,23.380,449.171,18.20,1017.24,87.80,NaN,354.0,NaN,10.0,NaN,333.3,NaN,4.7,NaN,NaN, NaN,NaN,330.0,NaN,NaN,NaN,2,9.3,000239,   NaN,331.1,     NaN,      NaN,NaN,10.2,NaN,18.639, NaN,NaN,NaN, NaN, NaN
20040726,000432,1132128,33.318167,-124.273167,NaN,18.638,32.734,43.839,  NaN,0.0, NaN, NaN, NaN, NaN,23.380,449.164,18.20,1017.26,87.80,NaN,2.0,NaN,9.5,NaN,331.3,NaN,4.5,NaN,NaN, NaN,NaN,330.0,NaN,NaN,NaN,2,9.4,000269,   NaN,331.3,     NaN,      NaN,NaN,10.2,NaN,18.642, NaN,NaN,NaN, NaN, NaN
20040726,000502,1132158,33.319333,-124.274000,NaN,18.644,32.736,43.847,  NaN,0.0, NaN, NaN, NaN, NaN,23.380,449.190,18.30,1017.37,88.00,NaN,1.0,NaN,8.5,NaN,357.2,NaN,3.9,NaN,NaN, NaN,NaN,329.0,NaN,NaN,NaN,2,9.7,000299,   NaN,329.9,     NaN,      NaN,NaN,10.4,NaN,18.649, NaN,NaN,NaN, NaN, NaN
20040726,000532,1132188,33.320500,-124.274833,NaN,18.647,32.738,43.852,  NaN,0.0, NaN, NaN, NaN, NaN,23.381,449.100,18.20,1017.36,87.90,NaN,355.0,NaN,9.2,NaN,315.0,NaN,5.7,NaN,NaN, NaN,NaN,328.0,NaN,NaN,NaN,2,9.6,000329,   NaN,329.9,     NaN,      NaN,NaN,10.2,NaN,18.651, NaN,NaN,NaN, NaN, NaN
20040726,000602,1132218,33.321500,-124.275667,NaN,18.649,32.740,43.856,  NaN,0.0, NaN, NaN, NaN, NaN,23.382,448.989,18.20,1017.34,87.80,NaN,0.0,NaN,10.6,NaN,332.7,NaN,6.2,NaN,NaN, NaN,NaN,330.0,NaN,NaN,NaN,2,9.6,000359,   NaN,332.8,     NaN,      NaN,NaN,10.3,NaN,18.653, NaN,NaN,NaN, NaN, NaN
20040726,000632,1132248,33.322667,-124.276500,NaN,18.658,32.742,43.868,  NaN,0.0, NaN, NaN, NaN, NaN,23.382,449.054,18.20,1017.22,87.90,NaN,1.0,NaN,9.1,NaN,332.5,NaN,4.4,NaN,NaN, NaN,NaN,330.0,NaN,NaN,NaN,2,9.6,000389,   NaN,330.5,     NaN,      NaN,NaN,9.9,NaN,18.663, NaN,NaN,NaN, NaN, NaN
20040726,000702,1132278,33.323833,-124.277333,NaN,18.670,32.745,43.883,  NaN,0.0, NaN, NaN, NaN, NaN,23.382,449.069,18.20,1017.27,87.80,NaN,8.0,NaN,10.3,NaN,334.1,NaN,5.4,NaN,NaN, NaN,NaN,329.0,NaN,NaN,NaN,2,9.7,000419,   NaN,330.5,     NaN,      NaN,NaN,10.2,NaN,18.674, NaN,NaN,NaN, NaN, NaN
20040726,000732,1132308,33.325000,-124.278167,NaN,18.677,32.749,43.893,  NaN,0.0, NaN, NaN, NaN, NaN,23.382,448.989,18.10,1017.30,87.60,NaN,354.0,NaN,10.6,NaN,332.1,NaN,5.6,NaN,NaN, NaN,NaN,328.0,NaN,NaN,NaN,2,9.4,000449,   NaN,330.2,     NaN,      NaN,NaN,10.5,NaN,18.681, NaN,NaN,NaN, NaN, NaN
20040726,000802,1132338,33.326167,-124.279000,NaN,18.682,32.750,43.900,  NaN,0.0, NaN, NaN, NaN, NaN,23.382,449.020,18.10,1017.28,87.90,NaN,354.0,NaN,10.4,NaN,322.0,NaN,5.4,NaN,NaN, NaN,NaN,330.0,NaN,NaN,NaN,2,9.7,000479,   NaN,331.7,     NaN,      NaN,NaN,10.2,NaN,18.686, NaN,NaN,NaN, NaN, NaN
20040726,000832,1132368,33.327333,-124.279667,NaN,18.684,32.751,43.904,  NaN,0.0, NaN, NaN, NaN, NaN,23.382,449.013,18.20,1017.19,88.00,NaN,3.0,NaN,10.4,NaN,331.4,NaN,5.4,NaN,NaN, NaN,NaN,330.0,NaN,NaN,NaN,2,9.5,000509,   NaN,331.6,     NaN,      NaN,NaN,10.4,NaN,18.689, NaN,NaN,NaN, NaN, NaN
20040726,000902,1132398,33.328500,-124.280500,NaN,18.691,32.753,43.912,  NaN,0.0, NaN, NaN, NaN, NaN,23.382,449.041,18.10,1017.24,87.50,NaN,354.0,NaN,10.6,NaN,322.7,NaN,5.9,NaN,NaN, NaN,NaN,329.0,NaN,NaN,NaN,2,9.4,000539,   NaN,331.9,     NaN,      NaN,NaN,10.4,NaN,18.695, NaN,NaN,NaN, NaN, NaN
20040726,000932,1132428,33.329667,-124.281333,NaN,18.697,32.754,43.919,  NaN,0.0, NaN, NaN, NaN, NaN,23.381,449.114,18.10,1017.33,87.80,NaN,0.0,NaN,10.6,NaN,321.7,NaN,5.6,NaN,NaN, NaN,NaN,330.0,NaN,NaN,NaN,2,9.5,000569,   NaN,331.2,     NaN,      NaN,NaN,9.7,NaN,18.702, NaN,NaN,NaN, NaN, NaN
20040726,001002,1132458,33.330833,-124.282167,NaN,18.704,32.755,43.927,  NaN,0.0, NaN, NaN, NaN, NaN,23.380,449.161,18.20,1017.32,88.10,NaN,358.0,NaN,10.2,NaN,333.2,NaN,5.2,NaN,NaN, NaN,NaN,330.0,NaN,NaN,NaN,2,9.6,000599,   NaN,331.3,     NaN,      NaN,NaN,10.6,NaN,18.708, NaN,NaN,NaN, NaN, NaN
20040726,001032,1132488,33.332000,-124.282833,NaN,18.706,32.756,43.930,  NaN,0.0, NaN, NaN, NaN, NaN,23.380,449.177,18.20,1017.24,87.90,NaN,354.0,NaN,10.6,NaN,316.3,NaN,5.8,NaN,NaN, NaN,NaN,330.0,NaN,NaN,NaN,2,9.5,000629,   NaN,330.7,     NaN,      NaN,NaN,10.1,NaN,18.710, NaN,NaN,NaN, NaN, NaN
20040726,001102,1132518,33.333167,-124.283667,NaN,18.707,32.758,43.933,  NaN,0.0, NaN, NaN, NaN, NaN,23.382,449.069,18.20,1017.31,88.10,NaN,358.0,NaN,9.7,NaN,334.1,NaN,4.5,NaN,NaN, NaN,NaN,329.0,NaN,NaN,NaN,2,9.6,000659,   NaN,330.1,     NaN,      NaN,NaN,10.4,NaN,18.712, NaN,NaN,NaN, NaN, NaN
20040726,001132,1132548,33.334333,-124.284500,NaN,18.704,32.759,43.932,  NaN,0.0, NaN, NaN, NaN, NaN,23.383,448.904,18.20,1017.21,87.50,NaN,355.0,NaN,10.8,NaN,320.6,NaN,5.6,NaN,NaN, NaN,NaN,328.0,NaN,NaN,NaN,2,9.5,000689,   NaN,329.9,     NaN,      NaN,NaN,10.1,NaN,18.709, NaN,NaN,NaN, NaN, NaN
20040726,001202,1132578,33.335333,-124.285333,NaN,18.706,32.761,43.937,  NaN,0.0, NaN, NaN, NaN, NaN,23.385,448.772,18.20,1017.27,87.80,NaN,2.0,NaN,10.2,NaN,337.4,NaN,5.4,NaN,NaN, NaN,NaN,330.0,NaN,NaN,NaN,2,9.5,000719,   NaN,331.5,     NaN,      NaN,NaN,10.3,NaN,18.710, NaN,NaN,NaN, NaN, NaN
20040726,001232,1132608,33.336500,-124.286167,NaN,18.706,32.766,43.942,  NaN,0.0, NaN, NaN, NaN, NaN,23.388,448.434,18.10,1017.32,87.60,NaN,0.0,NaN,10.3,NaN,331.3,NaN,5.2,NaN,NaN, NaN,NaN,329.0,NaN,NaN,NaN,2,9.6,000749,   NaN,331.3,     NaN,      NaN,NaN,10.3,NaN,18.710, NaN,NaN,NaN, NaN, NaN
20040726,001302,1132638,33.337667,-124.287000,NaN,18.700,32.769,43.940,  NaN,0.0, NaN, NaN, NaN, NaN,23.392,448.086,18.20,1017.14,88.10,NaN,355.0,NaN,9.6,NaN,326.3,NaN,4.9,NaN,NaN, NaN,NaN,329.0,NaN,NaN,NaN,2,9.6,000779,   NaN,330.4,     NaN,      NaN,NaN,10.5,NaN,18.704, NaN,NaN,NaN, NaN, NaN
20040726,001332,1132668,33.338833,-124.287833,NaN,18.695,32.769,43.935,  NaN,0.0, NaN, NaN, NaN, NaN,23.394,447.904,18.20,1017.24,87.90,NaN,355.0,NaN,9.6,NaN,331.6,NaN,4.0,NaN,NaN, NaN,NaN,330.0,NaN,NaN,NaN,2,9.5,000809,   NaN,331.6,     NaN,      NaN,NaN,10.3,NaN,18.699, NaN,NaN,NaN, NaN, NaN
20040726,001402,1132698,33.340000,-124.288667,NaN,18.694,32.771,43.936,  NaN,0.0, NaN, NaN, NaN, NaN,23.395,447.801,18.20,1017.16,87.80,NaN,4.0,NaN,10.2,NaN,337.2,NaN,5.1,NaN,NaN, NaN,NaN,330.0,NaN,NaN,NaN,2,9.5,000839,   NaN,331.3,     NaN,      NaN,NaN,10.1,NaN,18.698, NaN,NaN,NaN, NaN, NaN
20040726,001432,1132728,33.341167,-124.289500,NaN,18.694,32.772,43.938,  NaN,0.0, NaN, NaN, NaN, NaN,23.395,447.736,18.10,1017.20,87.60,NaN,4.0,NaN,10.4,NaN,341.9,NaN,5.4,NaN,NaN, NaN,NaN,329.0,NaN,NaN,NaN,2,9.5,000869,   NaN,330.5,     NaN,      NaN,NaN,10.7,NaN,18.699, NaN,NaN,NaN, NaN, NaN
20040726,001502,1132758,33.342333,-124.290333,NaN,18.694,32.774,43.940,  NaN,0.0, NaN, NaN, NaN, NaN,23.397,447.567,18.10,1017.24,87.90,NaN,348.0,NaN,8.7,NaN,337.0,NaN,5.1,NaN,NaN, NaN,NaN,329.0,NaN,NaN,NaN,2,9.7,000899,   NaN,331.1,     NaN,      NaN,NaN,10.5,NaN,18.698, NaN,NaN,NaN, NaN, NaN
20040726,001532,1132788,33.343500,-124.291167,NaN,18.693,32.775,43.941,  NaN,0.0, NaN, NaN, NaN, NaN,23.398,447.460,18.20,1017.10,88.10,NaN,354.0,NaN,9.7,NaN,338.3,NaN,4.2,NaN,NaN, NaN,NaN,328.0,NaN,NaN,NaN,2,9.5,000929,   NaN,329.6,     NaN,      NaN,NaN,10.3,NaN,18.698, NaN,NaN,NaN, NaN, NaN
20040726,001602,1132818,33.344667,-124.292000,NaN,18.691,32.778,43.942,  NaN,0.0, NaN, NaN, NaN, NaN,23.401,447.210,18.20,1017.15,87.80,NaN,2.0,NaN,10.6,NaN,333.0,NaN,5.6,NaN,NaN, NaN,NaN,330.0,NaN,NaN,NaN,2,9.6,000959,   NaN,331.2,     NaN,      NaN,NaN,10.3,NaN,18.696, NaN,NaN,NaN, NaN, NaN
20040726,001632,1132848,33.345833,-124.292667,NaN,18.688,32.780,43.941,  NaN,0.0, NaN, NaN, NaN, NaN,23.404,446.962,18.10,1017.14,87.60,NaN,353.0,NaN,11.0,NaN,335.4,NaN,6.3,NaN,NaN, NaN,NaN,331.0,NaN,NaN,NaN,2,9.7,000989,   NaN,331.8,     NaN,      NaN,NaN,10.2,NaN,18.692, NaN,NaN,NaN, NaN, NaN
20040726,001702,1132878,33.347000,-124.293500,NaN,18.683,32.782,43.940,  NaN,0.0, NaN, NaN, NaN, NaN,23.406,446.695,18.20,1017.13,87.90,NaN,355.0,NaN,10.5,NaN,321.2,NaN,5.4,NaN,NaN, NaN,NaN,329.0,NaN,NaN,NaN,2,9.3,001019,   NaN,330.9,     NaN,      NaN,NaN,10.5,NaN,18.688, NaN,NaN,NaN, NaN, NaN
20040726,001732,1132908,33.348167,-124.294333,NaN,18.680,32.785,43.940,  NaN,0.0, NaN, NaN, NaN, NaN,23.409,446.425,18.20,1017.20,88.10,NaN,3.0,NaN,9.2,NaN,333.6,NaN,5.1,NaN,NaN, NaN,NaN,331.0,NaN,NaN,NaN,2,9.6,001049,   NaN,331.6,     NaN,      NaN,NaN,10.5,NaN,18.685, NaN,NaN,NaN, NaN, NaN
20040726,001802,1132938,33.349333,-124.295167,NaN,18.677,32.787,43.940,  NaN,0.0, NaN, NaN, NaN, NaN,23.412,446.199,18.20,1017.27,88.00,NaN,358.0,NaN,10.0,NaN,326.6,NaN,4.9,NaN,NaN, NaN,NaN,329.0,NaN,NaN,NaN,2,9.7,001079,   NaN,330.6,     NaN,      NaN,NaN,9.8,NaN,18.681, NaN,NaN,NaN, NaN, NaN
20040726,001832,1132968,33.350500,-124.296000,NaN,18.673,32.788,43.938,  NaN,0.0, NaN, NaN, NaN, NaN,23.413,446.035,18.20,1017.14,88.00,NaN,1.0,NaN,11.1,NaN,318.1,NaN,6.1,NaN,NaN, NaN,NaN,329.0,NaN,NaN,NaN,2,9.7,001109,   NaN,330.6,     NaN,      NaN,NaN,9.9,NaN,18.678, NaN,NaN,NaN, NaN, NaN
20040726,001902,1132998,33.351500,-124.296667,NaN,18.674,32.790,43.940,  NaN,0.0, NaN, NaN, NaN, NaN,23.414,445.948,18.20,1017.29,88.30,NaN,358.0,NaN,9.9,NaN,322.2,NaN,5.5,NaN,NaN, NaN,NaN,331.0,NaN,NaN,NaN,2,9.5,001139,   NaN,331.9,     NaN,      NaN,NaN,10.5,NaN,18.678, NaN,NaN,NaN, NaN, NaN
20040726,001932,1133028,33.352667,-124.297500,NaN,18.679,32.792,43.948,  NaN,0.0, NaN, NaN, NaN, NaN,23.415,445.895,18.20,1017.04,88.40,NaN,4.0,NaN,11.0,NaN,335.2,NaN,5.5,NaN,NaN, NaN,NaN,331.0,NaN,NaN,NaN,2,9.4,001169,   NaN,331.3,     NaN,      NaN,NaN,10.2,NaN,18.684, NaN,NaN,NaN, NaN, NaN
20040726,002002,1133058,33.353833,-124.298333,NaN,18.683,32.793,43.953,  NaN,0.0, NaN, NaN, NaN, NaN,23.415,445.907,18.20,1017.17,88.40,NaN,5.0,NaN,10.6,NaN,345.4,NaN,6.1,NaN,NaN, NaN,NaN,330.0,NaN,NaN,NaN,2,9.6,001199,   NaN,330.9,     NaN,      NaN,NaN,10.4,NaN,18.688, NaN,NaN,NaN, NaN, NaN
20040726,002032,1133088,33.355000,-124.299167,NaN,18.689,32.794,43.959,  NaN,0.0, NaN, NaN, NaN, NaN,23.414,445.978,18.10,1017.20,88.10,NaN,351.0,NaN,10.1,NaN,332.7,NaN,5.6,NaN,NaN, NaN,NaN,330.0,NaN,NaN,NaN,2,9.5,001229,   NaN,330.8,     NaN,      NaN,NaN,10.3,NaN,18.693, NaN,NaN,NaN, NaN, NaN
20040726,002102,1133118,33.356167,-124.299833,NaN,18.693,32.795,43.965,  NaN,0.0, NaN, NaN, NaN, NaN,23.414,445.993,18.20,1017.12,88.50,NaN,0.0,NaN,10.5,NaN,320.8,NaN,5.7,NaN,NaN, NaN,NaN,329.0,NaN,NaN,NaN,2,9.5,001259,   NaN,330.1,     NaN,      NaN,NaN,10.0,NaN,18.697, NaN,NaN,NaN, NaN, NaN
20040726,002132,1133148,33.357333,-124.300667,NaN,18.696,32.796,43.969,  NaN,0.0, NaN, NaN, NaN, NaN,23.414,445.985,18.10,1017.18,88.40,NaN,0.0,NaN,9.8,NaN,320.9,NaN,5.5,NaN,NaN, NaN,NaN,329.0,NaN,NaN,NaN,2,9.6,001289,   NaN,330.5,     NaN,      NaN,NaN,10.1,NaN,18.701, NaN,NaN,NaN, NaN, NaN
20040726,002202,1133178,33.358500,-124.301500,NaN,18.697,32.798,43.972,  NaN,0.0, NaN, NaN, NaN, NaN,23.415,445.837,18.10,1017.21,88.40,NaN,3.0,NaN,10.5,NaN,336.0,NaN,5.7,NaN,NaN, NaN,NaN,329.0,NaN,NaN,NaN,2,9.5,001319,   NaN,330.3,     NaN,      NaN,NaN,10.3,NaN,18.701, NaN,NaN,NaN, NaN, NaN
20040726,002232,1133208,33.359667,-124.302333,NaN,18.702,32.801,43.980,  NaN,0.0, NaN, NaN, NaN, NaN,23.416,445.801,18.10,1017.13,88.60,NaN,353.0,NaN,11.1,NaN,320.8,NaN,6.2,NaN,NaN, NaN,NaN,330.0,NaN,NaN,NaN,2,9.7,001349,   NaN,331.6,     NaN,      NaN,NaN,10.4,NaN,18.707, NaN,NaN,NaN, NaN, NaN
20040726,002302,1133238,33.360833,-124.303167,NaN,18.710,32.806,43.994,  NaN,0.0, NaN, NaN, NaN, NaN,23.418,445.634,18.10,1017.12,88.50,NaN,355.0,NaN,10.6,NaN,322.4,NaN,5.5,NaN,NaN, NaN,NaN,330.0,NaN,NaN,NaN,2,9.4,001379,   NaN,331.8,     NaN,      NaN,NaN,10.3,NaN,18.715, NaN,NaN,NaN, NaN, NaN
20040726,002332,1133268,33.362000,-124.303833,NaN,18.717,32.808,44.003,  NaN,0.0, NaN, NaN, NaN, NaN,23.417,445.641,18.10,1017.19,88.40,NaN,358.0,NaN,10.4,NaN,330.9,NaN,5.8,NaN,NaN, NaN,NaN,330.0,NaN,NaN,NaN,2,9.4,001409,   NaN,330.9,     NaN,      NaN,NaN,10.0,NaN,18.722, NaN,NaN,NaN, NaN, NaN
20040726,002402,1133298,33.363000,-124.304667,NaN,18.719,32.811,44.009,  NaN,0.0, NaN, NaN, NaN, NaN,23.419,445.444,18.10,1017.10,88.30,NaN,1.0,NaN,10.6,NaN,333.6,NaN,5.9,NaN,NaN, NaN,NaN,328.0,NaN,NaN,NaN,2,9.5,001439,   NaN,329.7,     NaN,      NaN,NaN,10.0,NaN,18.724, NaN,NaN,NaN, NaN, NaN
20040726,002432,1133328,33.364167,-124.305500,NaN,18.717,32.813,44.009,  NaN,0.0, NaN, NaN, NaN, NaN,23.421,445.278,18.20,1017.31,88.90,NaN,352.0,NaN,10.1,NaN,318.3,NaN,5.0,NaN,NaN, NaN,NaN,328.0,NaN,NaN,NaN,2,9.7,001469,   NaN,330.6,     NaN,      NaN,NaN,10.3,NaN,18.722, NaN,NaN,NaN, NaN, NaN
20040726,002502,1133358,33.365500,-124.306333,NaN,18.717,32.814,44.010,  NaN,0.0, NaN, NaN, NaN, NaN,23.422,445.193,18.20,1017.12,89.00,NaN,355.0,NaN,10.2,NaN,322.4,NaN,5.4,NaN,NaN, NaN,NaN,331.0,NaN,NaN,NaN,2,9.7,001499,   NaN,332.3,     NaN,      NaN,NaN,10.3,NaN,18.722, NaN,NaN,NaN, NaN, NaN
20040726,002532,1133388,33.366667,-124.307167,NaN,18.718,32.816,44.013,  NaN,0.0, NaN, NaN, NaN, NaN,23.423,445.065,18.20,1017.21,88.60,NaN,355.0,NaN,10.4,NaN,320.4,NaN,5.6,NaN,NaN, NaN,NaN,330.0,NaN,NaN,NaN,2,9.7,001529,   NaN,331.9,     NaN,      NaN,NaN,10.2,NaN,18.722, NaN,NaN,NaN, NaN, NaN
20040726,002602,1133418,33.367833,-124.308000,NaN,18.717,32.818,44.015,  NaN,0.0, NaN, NaN, NaN, NaN,23.425,444.918,18.10,1017.18,88.50,NaN,355.0,NaN,10.4,NaN,322.0,NaN,5.9,NaN,NaN, NaN,NaN,330.0,NaN,NaN,NaN,2,9.6,001559,   NaN,331.0,     NaN,      NaN,NaN,10.3,NaN,18.721, NaN,NaN,NaN, NaN, NaN
20040726,002632,1133448,33.369000,-124.308833,NaN,18.717,32.821,44.019,  NaN,0.0, NaN, NaN, NaN, NaN,23.427,444.704,18.10,1017.18,88.60,NaN,355.0,NaN,10.2,NaN,310.9,NaN,5.4,NaN,NaN, NaN,NaN,328.0,NaN,NaN,NaN,2,9.6,001589,   NaN,330.1,     NaN,      NaN,NaN,10.0,NaN,18.722, NaN,NaN,NaN, NaN, NaN
20040726,002702,1133478,33.370000,-124.309667,NaN,18.714,32.824,44.020,  NaN,0.0, NaN, NaN, NaN, NaN,23.430,444.391,18.10,1017.08,88.60,NaN,355.0,NaN,10.5,NaN,321.4,NaN,5.3,NaN,NaN, NaN,NaN,330.0,NaN,NaN,NaN,2,9.6,001619,   NaN,331.0,     NaN,      NaN,NaN,10.2,NaN,18.719, NaN,NaN,NaN, NaN, NaN
20040726,002732,1133508,33.371167,-124.310500,NaN,18.709,32.825,44.016,  NaN,0.0, NaN, NaN, NaN, NaN,23.433,444.170,18.10,1017.30,88.80,NaN,355.0,NaN,9.6,NaN,326.8,NaN,4.8,NaN,NaN, NaN,NaN,330.0,NaN,NaN,NaN,2,9.6,001649,   NaN,330.7,     NaN,      NaN,NaN,10.5,NaN,18.713, NaN,NaN,NaN, NaN, NaN
20040726,002802,1133538,33.372333,-124.311167,NaN,18.700,32.827,44.010,  NaN,0.0, NaN, NaN, NaN, NaN,23.437,443.806,18.10,1017.29,88.80,NaN,10.0,NaN,9.6,NaN,339.9,NaN,4.6,NaN,NaN, NaN,NaN,328.0,NaN,NaN,NaN,2,9.5,001679,   NaN,331.8,     NaN,      NaN,NaN,10.8,NaN,18.704, NaN,NaN,NaN, NaN, NaN
20040726,002832,1133568,33.373500,-124.312000,NaN,18.691,32.829,44.003,  NaN,0.0, NaN, NaN, NaN, NaN,23.440,443.483,18.20,1017.10,89.20,NaN,352.0,NaN,9.5,NaN,315.3,NaN,4.8,NaN,NaN, NaN,NaN,329.0,NaN,NaN,NaN,2,9.3,001709,   NaN,331.2,     NaN,      NaN,NaN,10.1,NaN,18.695, NaN,NaN,NaN, NaN, NaN
20040726,002902,1133598,33.374667,-124.312833,NaN,18.682,32.830,43.997,  NaN,0.0, NaN, NaN, NaN, NaN,23.443,443.182,18.20,1017.19,89.30,NaN,355.0,NaN,8.3,NaN,309.6,NaN,3.1,NaN,NaN, NaN,NaN,329.0,NaN,NaN,NaN,2,9.5,001739,   NaN,330.1,     NaN,      NaN,NaN,10.5,NaN,18.687, NaN,NaN,NaN, NaN, NaN
20040726,002932,1133628,33.375833,-124.313667,NaN,18.682,32.833,43.999,  NaN,0.0, NaN, NaN, NaN, NaN,23.445,442.992,18.20,1017.17,88.80,NaN,1.0,NaN,10.5,NaN,340.1,NaN,5.5,NaN,NaN, NaN,NaN,329.0,NaN,NaN,NaN,2,9.5,001769,   NaN,330.8,     NaN,      NaN,NaN,9.9,NaN,18.686, NaN,NaN,NaN, NaN, NaN
20040726,003002,1133658,33.376833,-124.314500,NaN,18.682,32.835,44.002,  NaN,0.0, NaN, NaN, NaN, NaN,23.447,442.821,18.20,1017.14,89.30,NaN,354.0,NaN,9.6,NaN,337.4,NaN,4.7,NaN,NaN, NaN,NaN,330.0,NaN,NaN,NaN,2,9.4,001799,   NaN,331.3,     NaN,      NaN,NaN,10.0,NaN,18.686, NaN,NaN,NaN, NaN, NaN
20040726,003032,1133688,33.378000,-124.315333,NaN,18.681,32.836,44.002,  NaN,0.0, NaN, NaN, NaN, NaN,23.448,442.739,18.20,1017.14,89.20,NaN,358.0,NaN,9.1,NaN,332.8,NaN,4.6,NaN,NaN, NaN,NaN,329.0,NaN,NaN,NaN,2,9.5,001829,   NaN,330.7,     NaN,      NaN,NaN,10.0,NaN,18.685, NaN,NaN,NaN, NaN, NaN
20040726,003102,1133718,33.379167,-124.316167,NaN,18.679,32.837,44.001,  NaN,0.0, NaN, NaN, NaN, NaN,23.449,442.636,18.20,1017.24,88.90,NaN,1.0,NaN,9.7,NaN,330.8,NaN,4.5,NaN,NaN, NaN,NaN,329.0,NaN,NaN,NaN,2,9.6,001859,   NaN,331.0,     NaN,      NaN,NaN,10.6,NaN,18.683, NaN,NaN,NaN, NaN, NaN
20040726,003132,1133748,33.380333,-124.316833,NaN,18.679,32.837,44.001,  NaN,0.0, NaN, NaN, NaN, NaN,23.449,442.595,18.10,1017.26,89.00,NaN,1.0,NaN,9.2,NaN,338.9,NaN,5.4,NaN,NaN, NaN,NaN,330.0,NaN,NaN,NaN,2,9.7,001889,   NaN,331.3,     NaN,      NaN,NaN,10.1,NaN,18.683, NaN,NaN,NaN, NaN, NaN
20040726,003202,1133778,33.381500,-124.317667,NaN,18.679,32.836,44.000,  NaN,0.0, NaN, NaN, NaN, NaN,23.448,442.679,18.10,1017.18,89.20,NaN,358.0,NaN,9.8,NaN,327.4,NaN,5.2,NaN,NaN, NaN,NaN,330.0,NaN,NaN,NaN,2,9.6,001919,   NaN,331.1,     NaN,      NaN,NaN,10.4,NaN,18.683, NaN,NaN,NaN, NaN, NaN
20040726,003232,1133808,33.382667,-124.318500,NaN,18.679,32.833,43.997,  NaN,0.0, NaN, NaN, NaN, NaN,23.446,442.891,18.20,1017.15,89.30,NaN,352.0,NaN,10.8,NaN,316.5,NaN,6.0,NaN,NaN, NaN,NaN,330.0,NaN,NaN,NaN,2,9.5,001949,   NaN,330.9,     NaN,      NaN,NaN,10.2,NaN,18.684, NaN,NaN,NaN, NaN, NaN
20040726,003302,1133838,33.383833,-124.319333,NaN,18.680,32.833,43.998,  NaN,0.0, NaN, NaN, NaN, NaN,23.446,442.910,18.10,1017.13,89.30,NaN,354.0,NaN,8.0,NaN,311.1,NaN,3.6,NaN,NaN, NaN,NaN,329.0,NaN,NaN,NaN,2,9.3,001979,   NaN,329.8,     NaN,      NaN,NaN,10.4,NaN,18.685, NaN,NaN,NaN, NaN, NaN
20040726,003332,1133868,33.384833,-124.320167,NaN,18.680,32.834,43.999,  NaN,0.0, NaN, NaN, NaN, NaN,23.447,442.847,18.10,1017.18,88.90,NaN,1.0,NaN,10.2,NaN,328.4,NaN,5.4,NaN,NaN, NaN,NaN,327.0,NaN,NaN,NaN,2,9.4,002009,   NaN,328.2,     NaN,      NaN,NaN,10.5,NaN,18.684, NaN,NaN,NaN, NaN, NaN
20040726,003402,1133898,33.385833,-124.321000,NaN,18.682,32.834,44.001,  NaN,0.0, NaN, NaN, NaN, NaN,23.446,442.885,18.10,1017.12,89.00,NaN,1.0,NaN,8.9,NaN,315.4,NaN,4.2,NaN,NaN, NaN,NaN,325.0,NaN,NaN,NaN,2,8.1,002039,   NaN,327.4,     NaN,      NaN,NaN,9.1,NaN,18.687, NaN,NaN,NaN, NaN, NaN
20040726,003432,1133928,33.386667,-124.321667,NaN,18.680,32.834,43.999,  NaN,0.0, NaN, NaN, NaN, NaN,23.447,442.826,18.10,1017.21,89.20,NaN,354.0,NaN,6.8,NaN,330.4,NaN,4.6,NaN,NaN, NaN,NaN,324.0,NaN,NaN,NaN,2,5.9,002069,   NaN,327.1,     NaN,      NaN,NaN,6.0,NaN,18.684, NaN,NaN,NaN, NaN, NaN
20040726,003502,1133958,33.387167,-124.322167,NaN,18.680,32.834,43.999,  NaN,0.0, NaN, NaN, NaN, NaN,23.447,442.826,18.10,1017.21,89.30,NaN,353.0,NaN,7.3,NaN,318.2,NaN,5.2,NaN,NaN, NaN,NaN,321.0,NaN,NaN,NaN,2,4.5,002099,   NaN,326.7,     NaN,      NaN,NaN,4.2,NaN,18.684, NaN,NaN,NaN, NaN, NaN
20040726,003532,1133988,33.387667,-124.322500,NaN,18.677,32.835,43.997,  NaN,0.0, NaN, NaN, NaN, NaN,23.448,442.745,18.10,1017.16,89.40,NaN,4.0,NaN,6.4,NaN,328.7,NaN,4.7,NaN,NaN, NaN,NaN,320.0,NaN,NaN,NaN,2,3.5,002129,   NaN,325.8,     NaN,      NaN,NaN,3.1,NaN,18.682, NaN,NaN,NaN, NaN, NaN
20040726,003602,1134018,33.388000,-124.322833,NaN,18.676,32.835,43.996,  NaN,0.0, NaN, NaN, NaN, NaN,23.448,442.704,18.20,1017.07,89.30,NaN,2.0,NaN,5.8,NaN,333.0,NaN,4.4,NaN,NaN, NaN,NaN,317.0,NaN,NaN,NaN,2,2.9,002159,   NaN,325.0,     NaN,      NaN,NaN,2.4,NaN,18.680, NaN,NaN,NaN, NaN, NaN
20040726,003632,1134048,33.388167,-124.323167,NaN,18.676,32.835,43.996,  NaN,0.0, NaN, NaN, NaN, NaN,23.448,442.684,18.20,1017.15,89.40,NaN,355.0,NaN,5.5,NaN,313.5,NaN,4.3,NaN,NaN, NaN,NaN,316.0,NaN,NaN,NaN,2,2.6,002189,   NaN,323.9,     NaN,      NaN,NaN,2.0,NaN,18.680, NaN,NaN,NaN, NaN, NaN
20040726,003702,1134078,33.388500,-124.323500,NaN,18.675,32.835,43.995,  NaN,0.0, NaN, NaN, NaN, NaN,23.449,442.644,18.20,1017.21,89.40,NaN,15.0,NaN,6.1,NaN,331.6,NaN,4.3,NaN,NaN, NaN,NaN,311.0,NaN,NaN,NaN,2,2.4,002219,   NaN,325.2,     NaN,      NaN,NaN,1.9,NaN,18.679, NaN,NaN,NaN, NaN, NaN
20040726,003732,1134108,33.388667,-124.323667,NaN,18.676,32.835,43.996,  NaN,0.0, NaN, NaN, NaN, NaN,23.448,442.685,18.20,1017.05,89.30,NaN,9.0,NaN,6.3,NaN,340.6,NaN,5.1,NaN,NaN, NaN,NaN,313.0,NaN,NaN,NaN,2,2.2,002249,   NaN,325.6,     NaN,      NaN,NaN,1.9,NaN,18.680, NaN,NaN,NaN, NaN, NaN
20040726,003802,1134138,33.388833,-124.324000,NaN,18.674,32.835,43.995,  NaN,0.0, NaN, NaN, NaN, NaN,23.449,442.646,18.20,1017.19,89.30,NaN,1.0,NaN,6.1,NaN,332.6,NaN,4.2,NaN,NaN, NaN,NaN,307.0,NaN,NaN,NaN,2,1.8,002279,   NaN,325.4,     NaN,      NaN,NaN,1.7,NaN,18.679, NaN,NaN,NaN, NaN, NaN
20040726,003832,1134168,33.389000,-124.324167,NaN,18.674,32.835,43.994,  NaN,0.0, NaN, NaN, NaN, NaN,23.449,442.625,18.20,1017.20,89.70,NaN,358.0,NaN,4.3,NaN,331.6,NaN,4.0,NaN,NaN, NaN,NaN,306.0,NaN,NaN,NaN,2,1.3,002309,   NaN,327.0,     NaN,      NaN,NaN,1.3,NaN,18.678, NaN,NaN,NaN, NaN, NaN
20040726,003902,1134198,33.389000,-124.324333,NaN,18.674,32.835,43.995,  NaN,0.0, NaN, NaN, NaN, NaN,23.449,442.646,18.30,1017.16,89.40,NaN,354.0,NaN,5.2,NaN,327.8,NaN,4.7,NaN,NaN, NaN,NaN,301.0,NaN,NaN,NaN,2,1.1,002339,   NaN,334.8,     NaN,      NaN,NaN,1.0,NaN,18.679, NaN,NaN,NaN, NaN, NaN
20040726,003932,1134228,33.389167,-124.324333,NaN,18.675,32.835,43.996,  NaN,0.0, NaN, NaN, NaN, NaN,23.449,442.642,18.20,1017.04,89.20,NaN,344.0,NaN,5.9,NaN,326.6,NaN,5.7,NaN,NaN, NaN,NaN,311.0,NaN,NaN,NaN,2,0.8,002369,   NaN,344.3,     NaN,      NaN,NaN,0.8,NaN,18.680, NaN,NaN,NaN, NaN, NaN
20040726,004002,1134258,33.389167,-124.324333,NaN,18.675,32.835,43.996,  NaN,0.0, NaN, NaN, NaN, NaN,23.449,442.622,18.20,1017.09,89.20,NaN,338.0,NaN,5.3,NaN,333.0,NaN,5.0,NaN,NaN, NaN,NaN,325.0,NaN,NaN,NaN,2,0.5,002399,   NaN,352.4,     NaN,      NaN,NaN,0.7,NaN,18.679, NaN,NaN,NaN, NaN, NaN